Regional Weather Roundup
Issued by NWS

Home | Current Version | Previous Version | Text Only | Print | Product List | Glossary On
Versions: 1 2 3 4 5 6 7 8 9 10 11 12 13 14 15 16 17 18 19 20 21 22 23 24 25 26 27 28 29 30 31 32 33 34 35 36 37 38 39 40 41 42 43 44 45 46 47 48 49 50
000
ASUS42 KFFC 292210
RWRGA
WEATHER ROUNDUP FOR GEORGIA
NATIONAL WEATHER SERVICE PEACHTREE CITY GA
600 PM EDT THU SEP 29 2016

NOTE: "FAIR" INDICATES FEW OR NO CLOUDS BELOW 12,000 FEET WITH NO
SIGNIFICANT WEATHER AND/OR OBSTRUCTIONS TO VISIBILITY.

* = USE WITH CAUTION. THE STATIONS MARKED WITH AN ASTERISK MAY NOT
REPORT WEATHER SUCH AS PRECIPITATION, FOG, OR THUNDER AND ARE NOT
QUALITY CONTROLLED BY NWS.

THE REMARK "TC" DENOTES TEMPERATURE READING IN DEGREES CELSIUS.

GAZ001>058-292300-
NORTH GEORGIA

CITY           SKY/WX    TMP DP  RH WIND       PRES   REMARKS
ATLANTA        MOSUNNY   76  42  29 NW10      29.99R
ATHENS         SUNNY     78  47  33 W8G16     29.96R
CHAMBLEE       SUNNY     76  43  30 NW10      29.99R
PEACHTREE CITY SUNNY     77  44  30 NW9       29.99R
ROME           MOSUNNY   73  43  33 N13       30.01R
WEST ATLANTA   SUNNY     75  42  30 W12       29.99S
GAINESVILLE    SUNNY     73  45  36 W13G20    30.01R
CARTERSVILLE   SUNNY     74  41  30 N6        30.01R


CITY           SKY/WX    TMP DP  RH WIND       PRES   REMARKS
DALTON*        PTSUNNY   70  46  43 N8        30.03R
LAWRENCEVILLE* SUNNY     75  45  33 W9G16     29.98R
MARIETTA       MOSUNNY   75  43  31 W8        29.99S
CANTON*        SUNNY     72  34  25 NW6       30.02R
BLAIRSVILLE*     N/A    N/A N/A N/A MISG      30.03R
$$

GAZ059>098-102>109-292300-
CENTRAL GEORGIA

CITY           SKY/WX    TMP DP  RH WIND       PRES   REMARKS
AUGUSTA-BUSH   MOSUNNY   87  52  29 W7        29.89S
AUGUSTA-DANIEL MOSUNNY   88  49  25 SW7       29.92R
COLUMBUS       SUNNY     83  47  28 NW15G23   29.96R
MACON          MOSUNNY   87  54  32 NW10      29.92S
ROBINS AFB     MOSUNNY   87  53  30 NW8       29.91R


CITY           SKY/WX    TMP DP  RH WIND       PRES   REMARKS
LAGRANGE*      SUNNY     80  47  30 NW14      29.99S
MILLEDGEVILLE* SUNNY     82  59  44 W7        29.92S
$$

GAZ099>101-110>166-292300-
SOUTH GEORGIA

CITY           SKY/WX    TMP DP  RH WIND       PRES   REMARKS
SAVANNAH       MOSUNNY   88  66  48 S12       29.93R HX  90
VALDOSTA       MOSUNNY   86  69  56 MISG      29.94R HX  90
ALMA           SUNNY     88  64  44 W6        29.92S
ST SIMONS      CLOUDY    83  74  74 SE10      29.94S
FT STEWART     SUNNY     88  66  48 CALM      29.90R HX  91
ALBANY         MOSUNNY   89  57  33 W5        29.94S
HUNTER AFB     SUNNY     85  75  72 S13G18    29.91R HX  92
MOODY AFB      SUNNY     89  60  37 W12       29.93R
BRUNSWICK      CLOUDY    86  75  70 S10       29.95R HX  95


CITY           SKY/WX    TMP DP  RH WIND       PRES   REMARKS
BAINBRIDGE*    SUNNY     86  59  39 W6        29.94S
MOULTRIE*      SUNNY     86  59  39 W5        29.95S
VIDALIA*       MOSUNNY   88  66  48 SW7       29.92S HX  90
WAYCROSS*      MOSUNNY   92  70  47 SW8       29.92S HX  97
DOUGLAS*       SUNNY     88  54  31 W7        29.95R
$$




USA.gov is the U.S. government's official web portal to all federal, state and local government web resources and services.